Location: ????????
(54.8751°N, 38.5756°E)
Time: 12:28:35
(UTC+00:00)

MSX - Pass Details

Date: 14 April 2024
Orbit: 894 x 905 km, 99.0° (Epoch: 17 May)

Event Time Altitude Azimuth Distance (km) Brightness Sun altitude
Rises 00:19:16 0° 14° (NNE) 3,547 8.0 -16.1°
Reaches altitude 10° 00:21:44 10° 11° (N) 2,601 7.1 -15.9°
Maximum altitude 00:27:21 54° 296° (WNW) 1,095 4.1 -15.3°
Enters shadow 00:30:58 22° 228° (SW) 1,869 4.8 -14.9°
